User: anonymous   Login
Location: Newark
(15.4608°S, 41.1635°W)
Time: 13:26:44
(UTC+00:00)
Language:

Transit 4A - Orbit

View from above orbital plane
View from above orbital plane
View from above satellite
View from above satellite

Ground track
Ground track

The orbit data is extracted from the following two-line orbital elements,

1 00116U 61015A   21135.89990376 -.00000062  00000-0  11467-4 0  9996
2 00116  66.8082 115.4945 0070754 140.0175 220.6145 13.91789071 38074
Epoch (UTC): 15 May 2021 21:35:51
Eccentricity: 0.0070754
inclination: 66.8082°
perigee height: 871 km
apogee height: 974 km
right ascension of ascending node: 115.4945°
argument of perigee: 140.0175°
revolutions per day: 13.91789071
mean anomaly at epoch: 220.6145°
orbit number at epoch: 3807

The dashed part of the orbit path shows where the satellite is in the earth's shadow,  

DLR